Location: Haliburton Scout Reserve
(45.0900°N, 78.3200°W)
Time: 18:35:25
(UTC-05:00)

Courier 1B - Pass Details

Date: 30 November 2023
Orbit: 962 x 1209 km, 28.3° (Epoch: 23 February)

Event Time Altitude Azimuth Distance (km) Brightness Sun altitude
Rises 12:03:06 0° 227° (SW) 3,642 11.1 23.2°
Reaches altitude 10° 12:06:52 10° 206° (SSW) 2,684 11.1 23.2°
Maximum altitude 12:10:31 16° 171° (S) 2,291 11.6 23.2°
Drops below altitude 10° 12:14:12 10° 136° (SE) 2,697 10.6 23.2°
Sets 12:18:00 0° 115° (ESE) 3,668 10.8 23.1°
